sat.trackr.live / text

‹ back to catalog

STARLINK-35155

NORAD 65935 · 2025-225AB

PAYLOAD ACTIVE UNKNOWN

§ Identity

Operator
Country
US
Launch date
2025-10-08
Launch site
AFWTR
Launch vehicle
Mass (kg)
RCS (m²)

Purposes: comms

External: N2YO · Heavens-Above · Gunter

§ Orbital elements

Epoch: 2026-09-20T21:57:49.428288Z

Period
93.85 min
Inclination
53.1616°
Eccentricity
0.0000941
Mean motion
15.34405768 rev/d
Perigee alt
462.0 km
Apogee alt
463.3 km
Semi-major
6,840.8 km
B*
4.6164e-4
RAAN
335.6393°
Arg perigee
87.5494°
Mean anomaly
272.5616°
Rev number
5,345

§ Raw data

STARLINK-351551 65935U 25225AB  26263.91515542  .00015256  00000+0  46164-3 0  99972 65935  53.1616 335.6393 0000941  87.5494 272.5616 15.34405768 53454

JSON: /api/v1/satellites/65935 · /tle

For live sub-satellite position, see the globe view (requires WebGL).

§ Visibility from observer

Set your observer location to see the next 7 days of passes ≥ 10°. The values pass through the URL so the page stays shareable.

No JS? Fill the form by hand. The geolocation button needs JavaScript.